Time,TemperatureF,DewpointF,PressureIn,WindDirection,WindDirectionDegrees,WindSpeedMPH,WindSpeedGustMPH,Humidity,HourlyPrecipIn,Conditions,Clouds,dailyrainin,SolarRadiationWatts/m^2,SoftwareType,DateUTC
2013-07-25 00:00:00,58.5,55.6,30.00,SSW,210,0.0,2.0,90,0.00,,---,0.00,0.00,VWS V14.01,2013-07-25 05:00:00,
2013-07-25 00:02:00,58.4,55.5,30.00,SSW,210,0.0,0.0,90,0.00,,---,0.00,0.00,VWS V14.01,2013-07-25 05:02:00,
2013-07-25 00:07:00,58.4,55.5,30.00,SSW,210,0.0,0.0,90,0.00,,---,0.00,0.00,VWS V14.01,2013-07-25 05:07:00,
2013-07-25 00:12:00,58.3,55.4,30.00,SSW,210,0.0,0.0,90,0.00,,---,0.00,0.00,VWS V14.01,2013-07-25 05:12:00,
2013-07-25 00:17:00,58.3,55.4,30.00,SSW,210,0.0,0.0,90,0.00,,---,0.00,0.00,VWS V14.01,2013-07-25 05:17:00,
2013-07-25 00:22:00,58.2,55.3,30.00,SSW,210,0.0,1.0,90,0.00,,---,0.00,0.00,VWS V14.01,2013-07-25 05:22:00,
2013-07-25 00:27:00,58.2,55.6,30.00,SSW,210,1.0,1.0,91,0.00,,---,0.00,0.00,VWS V14.01,2013-07-25 05:27:00,
2013-07-25 00:32:00,58.2,55.6,30.00,SSW,210,0.0,1.0,91,0.00,,---,0.00,0.00,VWS V14.01,2013-07-25 05:32:00,
2013-07-25 00:37:00,58.1,55.5,30.00,SSW,210,0.0,1.0,91,0.00,,---,0.00,0.00,VWS V14.01,2013-07-25 05:37:00,
2013-07-25 00:42:00,58.0,55.4,30.00,SSW,210,0.0,1.0,91,0.00,,---,0.00,0.00,VWS V14.01,2013-07-25 05:42:00,
2013-07-25 00:47:00,57.9,55.3,29.99,SSW,210,0.0,1.0,91,0.00,,---,0.00,0.00,VWS V14.01,2013-07-25 05:47:00,
2013-07-25 00:52:00,57.7,55.1,29.99,SSW,210,0.0,1.0,91,0.00,,---,0.00,0.00,VWS V14.01,2013-07-25 05:52:00,
2013-07-25 00:57:00,57.6,55.0,29.99,SSW,210,0.0,1.0,91,0.00,,---,0.00,0.00,VWS V14.01,2013-07-25 05:57:00,
2013-07-25 01:00:00,57.5,54.9,29.99,SSW,210,0.0,1.0,91,0.00,,---,0.00,0.00,VWS V14.01,2013-07-25 06:00:00,
2013-07-25 01:02:00,57.4,54.8,29.98,SSW,210,0.0,0.0,91,0.00,,---,0.00,0.00,VWS V14.01,2013-07-25 06:02:00,
2013-07-25 01:07:00,57.3,54.7,29.99,SSW,210,0.0,0.0,91,0.00,,---,0.00,0.00,VWS V14.01,2013-07-25 06:07:00,
2013-07-25 01:12:00,57.3,54.7,29.98,SSW,210,0.0,0.0,91,0.00,,---,0.00,0.00,VWS V14.01,2013-07-25 06:12:00,
2013-07-25 01:17:00,57.1,54.5,29.98,SSW,210,0.0,0.0,91,0.00,,---,0.00,0.00,VWS V14.01,2013-07-25 06:17:00,
2013-07-25 01:22:00,57.0,54.4,29.98,SSW,210,0.0,0.0,91,0.00,,---,0.00,0.00,VWS V14.01,2013-07-25 06:22:00,
2013-07-25 01:27:00,56.9,54.3,29.98,SSW,210,0.0,0.0,91,0.00,,---,0.00,0.00,VWS V14.01,2013-07-25 06:27:00,
2013-07-25 01:32:00,56.8,54.2,29.98,SSW,210,0.0,0.0,91,0.00,,---,0.00,0.00,VWS V14.01,2013-07-25 06:32:00,
2013-07-25 01:37:00,56.7,54.1,29.98,SSW,210,0.0,0.0,91,0.00,,---,0.00,0.00,VWS V14.01,2013-07-25 06:37:00,
2013-07-25 01:42:00,56.6,54.0,29.98,SSW,210,0.0,0.0,91,0.00,,---,0.00,0.00,VWS V14.01,2013-07-25 06:42:00,
2013-07-25 01:47:00,56.4,53.8,29.98,SSW,210,0.0,0.0,91,0.00,,---,0.00,0.00,VWS V14.01,2013-07-25 06:47:00,
2013-07-25 01:52:00,56.3,54.0,29.99,SSW,210,0.0,0.0,92,0.00,,---,0.00,0.00,VWS V14.01,2013-07-25 06:52:00,
2013-07-25 01:57:00,56.2,53.9,29.99,SSW,210,0.0,0.0,92,0.00,,---,0.00,0.00,VWS V14.01,2013-07-25 06:57:00,
2013-07-25 02:00:00,56.1,53.8,29.98,SSW,210,0.0,0.0,92,0.00,,---,0.00,0.00,VWS V14.01,2013-07-25 07:00:00,
2013-07-25 02:02:00,56.0,53.7,29.99,SSW,210,0.0,0.0,92,0.00,,---,0.00,0.00,VWS V14.01,2013-07-25 07:02:00,
2013-07-25 02:07:00,55.9,53.3,29.99,SSW,210,0.0,0.0,91,0.00,,---,0.00,0.00,VWS V14.01,2013-07-25 07:07:00,
2013-07-25 02:12:00,55.8,53.5,29.98,SSW,210,0.0,2.0,92,0.00,,---,0.00,0.00,VWS V14.01,2013-07-25 07:12:00,
2013-07-25 02:17:00,55.7,53.4,29.99,SSW,210,0.0,2.0,92,0.00,,---,0.00,0.00,VWS V14.01,2013-07-25 07:17:00,
2013-07-25 02:22:00,55.6,53.3,29.98,SSW,210,0.0,2.0,92,0.00,,---,0.00,0.00,VWS V14.01,2013-07-25 07:22:00,
2013-07-25 02:27:00,55.5,53.2,29.99,SSW,210,0.0,2.0,92,0.00,,---,0.00,0.00,VWS V14.01,2013-07-25 07:27:00,
2013-07-25 02:32:00,55.4,53.1,29.98,SSW,210,0.0,2.0,92,0.00,,---,0.00,0.00,VWS V14.01,2013-07-25 07:32:00,
2013-07-25 02:37:00,55.3,53.0,29.98,SSW,210,0.0,2.0,92,0.00,,---,0.00,0.00,VWS V14.01,2013-07-25 07:37:00,
2013-07-25 02:42:00,55.2,52.9,29.98,SSW,210,0.0,2.0,92,0.00,,---,0.00,0.00,VWS V14.01,2013-07-25 07:42:00,
2013-07-25 02:47:00,55.1,52.8,29.98,SSW,210,0.0,2.0,92,0.00,,---,0.00,0.00,VWS V14.01,2013-07-25 07:47:00,
2013-07-25 02:52:00,55.0,52.7,29.98,SSW,210,0.0,2.0,92,0.00,,---,0.00,0.00,VWS V14.01,2013-07-25 07:52:00,
2013-07-25 02:57:00,55.0,52.7,29.98,SSW,210,0.0,2.0,92,0.00,,---,0.00,0.00,VWS V14.01,2013-07-25 07:57:00,
2013-07-25 03:00:00,54.9,52.6,29.98,SSW,210,0.0,2.0,92,0.00,,---,0.00,0.00,VWS V14.01,2013-07-25 08:00:00,
2013-07-25 03:02:00,54.9,52.6,29.98,SSW,210,0.0,0.0,92,0.00,,---,0.00,0.00,VWS V14.01,2013-07-25 08:02:00,
2013-07-25 03:07:00,54.7,52.4,29.98,SSW,210,0.0,0.0,92,0.00,,---,0.00,0.00,VWS V14.01,2013-07-25 08:07:00,
2013-07-25 03:12:00,54.7,52.7,29.98,SSW,210,0.0,0.0,93,0.00,,---,0.00,0.00,VWS V14.01,2013-07-25 08:12:00,
2013-07-25 03:17:00,54.6,52.6,29.99,SSW,210,0.0,1.0,93,0.00,,---,0.00,0.00,VWS V14.01,2013-07-25 08:17:00,
2013-07-25 03:22:00,54.6,52.6,29.99,SSW,210,0.0,1.0,93,0.00,,---,0.00,0.00,VWS V14.01,2013-07-25 08:22:00,
2013-07-25 03:27:00,54.5,52.5,29.99,SSW,210,0.0,1.0,93,0.00,,---,0.00,0.00,VWS V14.01,2013-07-25 08:27:00,
2013-07-25 03:32:00,54.3,52.3,29.99,SSW,210,0.0,1.0,93,0.00,,---,0.00,0.00,VWS V14.01,2013-07-25 08:32:00,
2013-07-25 03:37:00,54.2,52.2,29.99,SSW,210,0.0,1.0,93,0.00,,---,0.00,0.00,VWS V14.01,2013-07-25 08:37:00,
2013-07-25 03:42:00,54.1,52.1,30.00,SSW,210,0.0,1.0,93,0.00,,---,0.00,0.00,VWS V14.01,2013-07-25 08:42:00,
2013-07-25 03:47:00,54.1,52.1,29.99,SSW,210,0.0,1.0,93,0.00,,---,0.00,0.00,VWS V14.01,2013-07-25 08:47:00,
2013-07-25 03:52:00,54.1,52.1,29.99,SSW,210,0.0,1.0,93,0.00,,---,0.00,0.00,VWS V14.01,2013-07-25 08:52:00,
2013-07-25 03:57:00,54.1,52.1,30.00,SSW,210,0.0,1.0,93,0.00,,---,0.00,0.00,VWS V14.01,2013-07-25 08:57:00,
2013-07-25 04:00:00,54.1,52.4,29.99,SSW,210,0.0,1.0,94,0.00,,---,0.00,0.00,VWS V14.01,2013-07-25 09:00:00,
2013-07-25 04:02:00,54.1,52.4,29.99,SSW,210,0.0,0.0,94,0.00,,---,0.00,0.00,VWS V14.01,2013-07-25 09:02:00,
2013-07-25 04:07:00,54.1,52.4,29.99,SSW,210,0.0,0.0,94,0.00,,---,0.00,0.00,VWS V14.01,2013-07-25 09:07:00,
2013-07-25 04:12:00,54.1,52.4,29.99,SSW,210,0.0,0.0,94,0.00,,---,0.00,0.00,VWS V14.01,2013-07-25 09:12:00,
2013-07-25 04:17:00,54.2,52.5,29.99,SSW,210,1.0,1.0,94,0.00,,---,0.00,0.00,VWS V14.01,2013-07-25 09:17:00,
2013-07-25 04:22:00,54.3,52.6,29.99,SSW,210,0.0,1.0,94,0.00,,---,0.00,0.00,VWS V14.01,2013-07-25 09:22:00,
2013-07-25 04:27:00,54.4,52.7,29.99,SSW,210,0.0,1.0,94,0.00,,---,0.00,0.00,VWS V14.01,2013-07-25 09:27:00,
2013-07-25 04:32:00,54.4,52.7,29.99,SSW,210,0.0,1.0,94,0.00,,---,0.00,0.00,VWS V14.01,2013-07-25 09:32:00,
2013-07-25 04:37:00,54.5,52.8,29.99,SSW,210,0.0,1.0,94,0.00,,---,0.00,0.00,VWS V14.01,2013-07-25 09:37:00,
2013-07-25 04:42:00,54.5,53.1,29.99,SSW,210,0.0,1.0,95,0.00,,---,0.00,0.00,VWS V14.01,2013-07-25 09:42:00,
2013-07-25 04:47:00,54.6,52.9,29.99,SSW,210,1.0,1.0,94,0.00,,---,0.00,0.00,VWS V14.01,2013-07-25 09:47:00,
2013-07-25 04:52:00,54.7,53.0,29.99,SSW,210,0.0,1.0,94,0.00,,---,0.00,0.00,VWS V14.01,2013-07-25 09:52:00,
2013-07-25 04:57:00,54.7,53.3,29.99,SSW,210,0.0,1.0,95,0.00,,---,0.00,0.00,VWS V14.01,2013-07-25 09:57:00,
2013-07-25 05:00:00,54.7,53.3,29.99,SSW,210,0.0,1.0,95,0.00,,---,0.00,0.00,VWS V14.01,2013-07-25 10:00:00,
2013-07-25 05:02:00,54.8,53.4,29.99,SSW,210,0.0,0.0,95,0.00,,---,0.00,0.00,VWS V14.01,2013-07-25 10:02:00,
2013-07-25 05:07:00,54.7,53.0,29.99,SSW,210,0.0,0.0,94,0.00,,---,0.00,0.00,VWS V14.01,2013-07-25 10:07:00,
2013-07-25 05:12:00,54.7,53.0,29.99,SSW,210,0.0,0.0,94,0.00,,---,0.00,0.00,VWS V14.01,2013-07-25 10:12:00,
2013-07-25 05:17:00,54.6,52.9,29.99,SSW,210,0.0,0.0,94,0.00,,---,0.00,0.00,VWS V14.01,2013-07-25 10:17:00,
2013-07-25 05:22:00,54.5,52.8,29.99,SSW,210,0.0,1.0,94,0.00,,---,0.00,0.00,VWS V14.01,2013-07-25 10:22:00,
2013-07-25 05:27:00,54.4,52.7,29.99,SSW,210,0.0,2.0,94,0.00,,---,0.00,0.00,VWS V14.01,2013-07-25 10:27:00,
2013-07-25 05:32:00,54.4,52.7,30.00,SSW,210,0.0,2.0,94,0.00,,---,0.00,0.00,VWS V14.01,2013-07-25 10:32:00,
2013-07-25 05:37:00,54.4,53.0,30.00,SSW,210,0.0,2.0,95,0.00,,---,0.00,0.00,VWS V14.01,2013-07-25 10:37:00,
2013-07-25 05:42:00,54.3,52.6,29.99,SSW,210,0.0,2.0,94,0.00,,---,0.00,0.00,VWS V14.01,2013-07-25 10:42:00,
2013-07-25 05:47:00,54.2,52.5,30.00,SSW,210,1.0,2.0,94,0.00,,---,0.00,0.00,VWS V14.01,2013-07-25 10:47:00,
2013-07-25 05:52:00,54.2,52.5,30.00,SSW,210,0.0,2.0,94,0.00,,---,0.00,5.00,VWS V14.01,2013-07-25 10:52:00,
2013-07-25 05:57:00,54.2,52.8,29.99,SSW,210,1.0,2.0,95,0.00,,---,0.00,7.00,VWS V14.01,2013-07-25 10:57:00,
2013-07-25 06:00:00,54.2,52.8,29.99,SSW,210,1.0,2.0,95,0.00,,---,0.00,7.00,VWS V14.01,2013-07-25 11:00:00,
2013-07-25 06:02:00,54.4,53.0,29.99,SSW,210,0.0,1.0,95,0.00,,---,0.00,9.00,VWS V14.01,2013-07-25 11:02:00,
2013-07-25 06:07:00,54.3,52.9,30.00,SSW,210,0.0,1.0,95,0.00,,---,0.00,11.00,VWS V14.01,2013-07-25 11:07:00,
2013-07-25 06:12:00,54.3,52.9,30.00,SSW,210,0.0,1.0,95,0.00,,---,0.00,14.00,VWS V14.01,2013-07-25 11:12:00,
2013-07-25 06:17:00,54.4,53.0,30.01,SSW,210,0.0,1.0,95,0.00,,---,0.00,16.00,VWS V14.01,2013-07-25 11:17:00,
2013-07-25 06:22:00,54.5,53.1,30.00,SSW,210,0.0,1.0,95,0.00,,---,0.00,19.00,VWS V14.01,2013-07-25 11:22:00,
2013-07-25 06:27:00,54.6,53.2,30.01,SSW,210,0.0,1.0,95,0.00,,---,0.00,21.00,VWS V14.01,2013-07-25 11:27:00,
2013-07-25 06:32:00,54.9,53.8,30.00,SSW,210,0.0,1.0,96,0.00,,---,0.00,25.00,VWS V14.01,2013-07-25 11:32:00,
2013-07-25 06:37:00,55.4,54.3,30.00,SSW,210,0.0,1.0,96,0.00,,---,0.00,30.00,VWS V14.01,2013-07-25 11:37:00,
2013-07-25 06:42:00,55.7,54.6,30.00,SSW,210,0.0,1.0,96,0.00,,---,0.00,42.00,VWS V14.01,2013-07-25 11:42:00,
2013-07-25 06:47:00,56.0,54.9,30.00,SSW,210,0.0,1.0,96,0.00,,---,0.00,65.00,VWS V14.01,2013-07-25 11:47:00,
2013-07-25 06:52:00,56.4,55.3,30.00,SSW,210,0.0,1.0,96,0.00,,---,0.00,84.00,VWS V14.01,2013-07-25 11:52:00,
2013-07-25 06:57:00,56.6,55.5,30.00,SSW,210,0.0,1.0,96,0.00,,---,0.00,113.00,VWS V14.01,2013-07-25 11:57:00,
2013-07-25 07:00:00,56.8,55.7,30.00,SSW,210,0.0,1.0,96,0.00,,---,0.00,121.00,VWS V14.01,2013-07-25 12:00:00,
2013-07-25 07:02:00,57.1,55.7,30.00,SSW,210,0.0,2.0,95,0.00,,---,0.00,134.00,VWS V14.01,2013-07-25 12:02:00,
2013-07-25 07:07:00,57.6,56.2,30.00,SSW,210,0.0,2.0,95,0.00,,---,0.00,149.00,VWS V14.01,2013-07-25 12:07:00,
2013-07-25 07:12:00,58.1,56.4,30.00,SSW,210,0.0,2.0,94,0.00,,---,0.00,160.00,VWS V14.01,2013-07-25 12:12:00,
2013-07-25 07:17:00,58.6,56.9,30.00,SSW,210,1.0,2.0,94,0.00,,---,0.00,79.00,VWS V14.01,2013-07-25 12:17:00,
2013-07-25 07:22:00,59.1,57.1,30.00,SSW,210,1.0,2.0,93,0.00,,---,0.00,116.00,VWS V14.01,2013-07-25 12:22:00,
2013-07-25 07:27:00,59.5,57.2,30.00,SSW,210,0.0,2.0,92,0.00,,---,0.00,104.00,VWS V14.01,2013-07-25 12:27:00,
2013-07-25 07:32:00,59.9,57.3,30.00,SSE,165,4.0,4.0,91,0.00,,---,0.00,162.00,VWS V14.01,2013-07-25 12:32:00,
2013-07-25 07:37:00,60.3,57.4,30.00,SSW,200,2.0,4.0,90,0.00,,---,0.00,237.00,VWS V14.01,2013-07-25 12:37:00,
2013-07-25 07:42:00,60.9,57.6,30.00,SSW,211,0.0,5.0,89,0.00,,---,0.00,251.00,VWS V14.01,2013-07-25 12:42:00,
2013-07-25 07:47:00,61.6,58.0,30.00,SSW,211,1.0,5.0,88,0.00,,---,0.00,267.00,VWS V14.01,2013-07-25 12:47:00,
2013-07-25 07:52:00,62.0,58.4,30.00,SSW,199,4.0,5.0,88,0.00,,---,0.00,285.00,VWS V14.01,2013-07-25 12:52:00,
2013-07-25 07:57:00,62.6,58.4,30.00,SSW,212,1.0,5.0,86,0.00,,---,0.00,299.00,VWS V14.01,2013-07-25 12:57:00,
2013-07-25 08:00:00,62.9,58.7,30.00,SSW,212,3.0,5.0,86,0.00,,---,0.00,306.00,VWS V14.01,2013-07-25 13:00:00,
2013-07-25 08:02:00,63.2,58.6,30.01,SSW,206,2.0,5.0,85,0.00,,---,0.00,318.00,VWS V14.01,2013-07-25 13:02:00,
2013-07-25 08:07:00,63.7,58.8,30.01,SW,214,2.0,5.0,84,0.00,,---,0.00,334.00,VWS V14.01,2013-07-25 13:07:00,
2013-07-25 08:12:00,64.1,59.2,30.00,South,188,2.0,5.0,84,0.00,,---,0.00,346.00,VWS V14.01,2013-07-25 13:12:00,
2013-07-25 08:17:00,64.5,59.6,30.00,SSW,194,1.0,5.0,84,0.00,,---,0.00,364.00,VWS V14.01,2013-07-25 13:17:00,
2013-07-25 08:22:00,65.0,59.4,30.00,South,176,0.0,5.0,82,0.00,,---,0.00,392.00,VWS V14.01,2013-07-25 13:22:00,
2013-07-25 08:27:00,65.5,59.9,30.00,SSW,201,2.0,5.0,82,0.00,,---,0.00,424.00,VWS V14.01,2013-07-25 13:27:00,
2013-07-25 08:32:00,66.0,60.0,30.01,SSW,210,1.0,5.0,81,0.00,,---,0.00,436.00,VWS V14.01,2013-07-25 13:32:00,
2013-07-25 08:37:00,66.8,60.4,30.01,SSW,210,2.0,5.0,80,0.00,,---,0.00,503.00,VWS V14.01,2013-07-25 13:37:00,
2013-07-25 08:42:00,67.3,60.2,30.01,SSW,198,5.0,7.0,78,0.00,,---,0.00,561.00,VWS V14.01,2013-07-25 13:42:00,
2013-07-25 08:47:00,67.8,60.7,30.01,SSW,197,2.0,7.0,78,0.00,,---,0.00,608.00,VWS V14.01,2013-07-25 13:47:00,
2013-07-25 08:52:00,68.0,60.5,30.01,SW,214,2.0,7.0,77,0.00,,---,0.00,190.00,VWS V14.01,2013-07-25 13:52:00,
2013-07-25 08:57:00,68.0,60.9,30.01,SW,214,1.0,7.0,78,0.00,,---,0.00,445.00,VWS V14.01,2013-07-25 13:57:00,
2013-07-25 09:00:00,68.0,60.5,30.01,SW,214,3.0,7.0,77,0.00,,---,0.00,445.00,VWS V14.01,2013-07-25 14:00:00,
2013-07-25 09:02:00,68.3,61.2,30.01,SW,215,1.0,4.0,78,0.00,,---,0.00,445.00,VWS V14.01,2013-07-25 14:02:00,
2013-07-25 09:07:00,68.9,61.0,30.01,SSW,205,3.0,4.0,76,0.00,,---,0.00,564.00,VWS V14.01,2013-07-25 14:07:00,
2013-07-25 09:12:00,69.2,60.6,30.00,SSW,211,2.0,6.0,74,0.00,,---,0.00,596.00,VWS V14.01,2013-07-25 14:12:00,
2013-07-25 09:17:00,69.9,61.2,30.00,SSW,200,1.0,6.0,74,0.00,,---,0.00,613.00,VWS V14.01,2013-07-25 14:17:00,
2013-07-25 09:22:00,70.1,61.0,30.00,SSW,213,4.0,6.0,73,0.00,,---,0.00,675.00,VWS V14.01,2013-07-25 14:22:00,
2013-07-25 09:27:00,70.6,61.5,30.00,SSW,212,2.0,6.0,73,0.00,,---,0.00,371.00,VWS V14.01,2013-07-25 14:27:00,
2013-07-25 09:32:00,70.7,61.6,30.00,SW,214,3.0,6.0,73,0.00,,---,0.00,334.00,VWS V14.01,2013-07-25 14:32:00,
2013-07-25 09:37:00,70.8,61.3,30.00,WSW,237,2.0,6.0,72,0.00,,---,0.00,288.00,VWS V14.01,2013-07-25 14:37:00,
2013-07-25 09:42:00,70.4,61.3,30.00,SW,216,3.0,6.0,73,0.00,,---,0.00,297.00,VWS V14.01,2013-07-25 14:42:00,
2013-07-25 09:47:00,70.3,61.6,30.00,SW,221,2.0,6.0,74,0.00,,---,0.00,281.00,VWS V14.01,2013-07-25 14:47:00,
2013-07-25 09:52:00,70.4,61.7,30.00,SSW,202,2.0,6.0,74,0.00,,---,0.00,274.00,VWS V14.01,2013-07-25 14:52:00,
2013-07-25 09:57:00,70.4,61.7,30.00,SSW,196,0.0,6.0,74,0.00,,---,0.00,278.00,VWS V14.01,2013-07-25 14:57:00,
2013-07-25 10:00:00,70.4,61.7,30.00,South,178,2.0,6.0,74,0.00,,---,0.00,292.00,VWS V14.01,2013-07-25 15:00:00,
2013-07-25 10:02:00,70.5,62.2,30.00,SSW,207,1.0,4.0,75,0.00,,---,0.00,295.00,VWS V14.01,2013-07-25 15:02:00,
2013-07-25 10:07:00,70.6,61.9,30.00,SSW,212,1.0,4.0,74,0.00,,---,0.00,269.00,VWS V14.01,2013-07-25 15:07:00,
2013-07-25 10:12:00,70.6,61.9,30.00,SSW,211,2.0,4.0,74,0.00,,---,0.00,213.00,VWS V14.01,2013-07-25 15:12:00,
2013-07-25 10:17:00,70.5,61.8,30.00,South,188,3.0,4.0,74,0.00,,---,0.00,163.00,VWS V14.01,2013-07-25 15:17:00,
2013-07-25 10:22:00,70.2,61.5,30.00,SW,214,3.0,4.0,74,0.00,,---,0.00,167.00,VWS V14.01,2013-07-25 15:22:00,
2013-07-25 10:27:00,70.0,62.1,30.00,SSW,211,2.0,4.0,76,0.00,,---,0.00,223.00,VWS V14.01,2013-07-25 15:27:00,
2013-07-25 10:32:00,70.0,61.7,30.00,SSW,196,1.0,4.0,75,0.00,,---,0.00,279.00,VWS V14.01,2013-07-25 15:32:00,
2013-07-25 10:37:00,70.2,61.9,30.00,SSW,204,1.0,4.0,75,0.00,,---,0.00,308.00,VWS V14.01,2013-07-25 15:37:00,
2013-07-25 10:42:00,70.5,62.2,30.00,SSW,211,1.0,4.0,75,0.00,,---,0.00,294.00,VWS V14.01,2013-07-25 15:42:00,
2013-07-25 10:47:00,70.6,62.3,30.00,SSW,211,2.0,4.0,75,0.00,,---,0.00,262.00,VWS V14.01,2013-07-25 15:47:00,
2013-07-25 10:52:00,70.7,63.1,30.00,SSW,211,2.0,4.0,77,0.00,,---,0.00,257.00,VWS V14.01,2013-07-25 15:52:00,
2013-07-25 10:57:00,70.6,62.3,30.00,SSW,211,4.0,4.0,75,0.00,,---,0.00,153.00,VWS V14.01,2013-07-25 15:57:00,
2013-07-25 11:00:00,70.5,62.2,30.00,SSW,211,2.0,4.0,75,0.00,,---,0.00,142.00,VWS V14.01,2013-07-25 16:00:00,
2013-07-25 11:02:00,70.4,62.1,30.01,SSW,211,2.0,3.0,75,0.00,,---,0.00,111.00,VWS V14.01,2013-07-25 16:02:00,
2013-07-25 11:07:00,70.3,62.4,30.01,SSW,210,3.0,4.0,76,0.00,,---,0.00,100.00,VWS V14.01,2013-07-25 16:07:00,
2013-07-25 11:12:00,70.1,62.2,30.00,SSW,210,0.0,4.0,76,0.00,,---,0.00,192.00,VWS V14.01,2013-07-25 16:12:00,
2013-07-25 11:17:00,70.3,63.1,30.01,SSW,210,4.0,4.0,78,0.00,,---,0.00,264.00,VWS V14.01,2013-07-25 16:17:00,
2013-07-25 11:22:00,70.5,63.0,30.01,SSW,210,1.0,4.0,77,0.00,,---,0.00,396.00,VWS V14.01,2013-07-25 16:22:00,
2013-07-25 11:27:00,71.3,63.7,30.00,SSW,210,1.0,4.0,77,0.00,,---,0.00,545.00,VWS V14.01,2013-07-25 16:27:00,
2013-07-25 11:32:00,71.7,63.4,30.00,SSW,208,1.0,4.0,75,0.00,,---,0.00,322.00,VWS V14.01,2013-07-25 16:32:00,
2013-07-25 11:37:00,71.6,63.6,30.00,SSW,201,2.0,5.0,76,0.00,,---,0.00,315.00,VWS V14.01,2013-07-25 16:37:00,
2013-07-25 11:42:00,71.5,63.2,30.00,SSW,210,2.0,5.0,75,0.00,,---,0.00,439.00,VWS V14.01,2013-07-25 16:42:00,
2013-07-25 11:47:00,72.7,64.7,30.00,WSW,248,6.0,6.0,76,0.00,,---,0.00,701.00,VWS V14.01,2013-07-25 16:47:00,
2013-07-25 11:52:00,72.3,63.2,30.00,SSW,207,2.0,6.0,73,0.00,,---,0.00,446.00,VWS V14.01,2013-07-25 16:52:00,
2013-07-25 11:57:00,72.6,63.8,30.00,SW,236,1.0,6.0,74,0.00,,---,0.00,496.00,VWS V14.01,2013-07-25 16:57:00,
2013-07-25 12:00:00,73.2,65.2,29.99,WSW,252,5.0,6.0,76,0.00,,---,0.00,1167.00,VWS V14.01,2013-07-25 17:00:00,
2013-07-25 12:02:00,74.0,64.0,30.00,SSW,200,3.0,7.0,71,0.00,,---,0.00,448.00,VWS V14.01,2013-07-25 17:02:00,
2013-07-25 12:07:00,73.2,64.0,30.00,SSW,207,2.0,7.0,73,0.00,,---,0.00,290.00,VWS V14.01,2013-07-25 17:07:00,
2013-07-25 12:12:00,72.8,63.3,30.00,SSW,210,3.0,7.0,72,0.00,,---,0.00,322.00,VWS V14.01,2013-07-25 17:12:00,
2013-07-25 12:17:00,72.8,64.0,30.00,SW,234,3.0,7.0,74,0.00,,---,0.00,211.00,VWS V14.01,2013-07-25 17:17:00,
2013-07-25 12:22:00,72.3,63.2,30.00,SSW,211,2.0,7.0,73,0.00,,---,0.00,311.00,VWS V14.01,2013-07-25 17:22:00,
2013-07-25 12:27:00,72.5,63.8,29.99,SW,227,1.0,7.0,74,0.00,,---,0.00,427.00,VWS V14.01,2013-07-25 17:27:00,
2013-07-25 12:32:00,73.9,65.1,29.99,SSW,203,2.0,7.0,74,0.00,,---,0.00,918.00,VWS V14.01,2013-07-25 17:32:00,
2013-07-25 12:37:00,75.1,65.9,29.99,SSW,208,4.0,7.0,73,0.00,,---,0.00,914.00,VWS V14.01,2013-07-25 17:37:00,
2013-07-25 12:42:00,76.2,66.1,29.98,SSW,209,4.0,7.0,71,0.00,,---,0.00,995.00,VWS V14.01,2013-07-25 17:42:00,
2013-07-25 12:47:00,76.6,66.1,29.98,SSW,203,3.0,7.0,70,0.00,,---,0.00,441.00,VWS V14.01,2013-07-25 17:47:00,
2013-07-25 12:52:00,76.3,65.0,29.98,South,190,6.0,7.0,68,0.00,,---,0.00,527.00,VWS V14.01,2013-07-25 17:52:00,
2013-07-25 12:57:00,75.4,64.5,29.98,SSW,202,0.0,7.0,69,0.00,,---,0.00,408.00,VWS V14.01,2013-07-25 17:57:00,
2013-07-25 13:00:00,75.5,65.4,29.98,SSW,203,2.0,7.0,71,0.00,,---,0.00,408.00,VWS V14.01,2013-07-25 18:00:00,
2013-07-25 13:02:00,75.5,64.6,29.98,SSW,202,3.0,5.0,69,0.00,,---,0.00,357.00,VWS V14.01,2013-07-25 18:02:00,
2013-07-25 13:07:00,76.8,66.3,29.98,SSW,209,2.0,5.0,70,0.00,,---,0.00,308.00,VWS V14.01,2013-07-25 18:07:00,
2013-07-25 13:12:00,78.4,67.4,29.97,SSW,192,2.0,6.0,69,0.00,,---,0.00,1099.00,VWS V14.01,2013-07-25 18:12:00,
2013-07-25 13:17:00,78.2,65.0,29.97,SW,214,2.0,6.0,64,0.00,,---,0.00,1055.00,VWS V14.01,2013-07-25 18:17:00,
2013-07-25 13:22:00,78.1,64.9,29.97,SSW,209,3.0,6.0,64,0.00,,---,0.00,1055.00,VWS V14.01,2013-07-25 18:22:00,
2013-07-25 13:27:00,77.8,65.5,29.97,SSW,201,4.0,7.0,66,0.00,,---,0.00,1090.00,VWS V14.01,2013-07-25 18:27:00,
2013-07-25 13:32:00,77.9,65.2,29.97,SSW,208,3.0,7.0,65,0.00,,---,0.00,986.00,VWS V14.01,2013-07-25 18:32:00,
2013-07-25 13:37:00,78.7,66.8,29.97,SW,223,5.0,7.0,67,0.00,,---,0.00,1013.00,VWS V14.01,2013-07-25 18:37:00,
2013-07-25 13:42:00,79.3,66.5,29.97,SSW,207,5.0,7.0,65,0.00,,---,0.00,947.00,VWS V14.01,2013-07-25 18:42:00,
2013-07-25 13:47:00,78.4,65.2,29.97,SSW,210,4.0,7.0,64,0.00,,---,0.00,867.00,VWS V14.01,2013-07-25 18:47:00,
2013-07-25 13:52:00,77.9,66.1,29.97,SSW,207,3.0,7.0,67,0.00,,---,0.00,487.00,VWS V14.01,2013-07-25 18:52:00,
2013-07-25 13:57:00,78.1,67.1,29.96,SSW,202,3.0,7.0,69,0.00,,---,0.00,666.00,VWS V14.01,2013-07-25 18:57:00,
2013-07-25 14:00:00,78.1,66.7,29.96,SSW,211,6.0,7.0,68,0.00,,---,0.00,404.00,VWS V14.01,2013-07-25 19:00:00,
2013-07-25 14:02:00,77.5,65.7,29.96,SW,224,4.0,7.0,67,0.00,,---,0.00,538.00,VWS V14.01,2013-07-25 19:02:00,
2013-07-25 14:07:00,77.6,66.2,29.96,SSW,210,5.0,7.0,68,0.00,,---,0.00,686.00,VWS V14.01,2013-07-25 19:07:00,
2013-07-25 14:12:00,77.8,66.4,29.95,SSW,208,4.0,7.0,68,0.00,,---,0.00,700.00,VWS V14.01,2013-07-25 19:12:00,
2013-07-25 14:17:00,78.1,66.3,29.95,SSW,213,4.0,7.0,67,0.00,,---,0.00,664.00,VWS V14.01,2013-07-25 19:17:00,
2013-07-25 14:23:00,77.6,66.6,29.95,SSW,204,4.0,7.0,69,0.00,,---,0.00,454.00,VWS V14.01,2013-07-25 19:23:00,
2013-07-25 14:28:00,77.4,66.4,29.95,South,186,2.0,7.0,69,0.00,,---,0.00,334.00,VWS V14.01,2013-07-25 19:28:00,
2013-07-25 14:33:00,76.6,65.7,29.95,SSW,202,5.0,7.0,69,0.00,,---,0.00,464.00,VWS V14.01,2013-07-25 19:33:00,
2013-07-25 14:38:00,77.1,67.0,29.94,SSW,198,3.0,7.0,71,0.00,,---,0.00,497.00,VWS V14.01,2013-07-25 19:38:00,
2013-07-25 14:43:00,77.5,67.4,29.94,SSW,209,5.0,7.0,71,0.00,,---,0.00,524.00,VWS V14.01,2013-07-25 19:43:00,
2013-07-25 14:48:00,77.1,67.0,29.94,SSW,207,4.0,7.0,71,0.00,,---,0.00,410.00,VWS V14.01,2013-07-25 19:48:00,
2013-07-25 14:53:00,77.4,66.9,29.93,SSW,213,1.0,7.0,70,0.00,,---,0.00,369.00,VWS V14.01,2013-07-25 19:53:00,
2013-07-25 14:58:00,77.2,66.7,29.93,SSW,198,1.0,7.0,70,0.00,,---,0.00,306.00,VWS V14.01,2013-07-25 19:58:00,
2013-07-25 15:00:00,77.2,67.1,29.93,SW,217,3.0,7.0,71,0.00,,---,0.00,301.00,VWS V14.01,2013-07-25 20:00:00,
2013-07-25 15:03:00,77.1,67.4,29.93,SW,215,3.0,3.0,72,0.00,,---,0.00,469.00,VWS V14.01,2013-07-25 20:03:00,
2013-07-25 15:08:00,77.0,66.9,29.93,SW,221,0.0,6.0,71,0.00,,---,0.00,214.00,VWS V14.01,2013-07-25 20:08:00,
2013-07-25 15:13:00,76.7,67.0,29.94,SSW,195,4.0,6.0,72,0.00,,---,0.00,193.00,VWS V14.01,2013-07-25 20:13:00,
2013-07-25 15:18:00,76.5,66.8,29.93,South,187,3.0,6.0,72,0.00,,---,0.00,186.00,VWS V14.01,2013-07-25 20:18:00,
2013-07-25 15:23:00,76.4,67.5,29.93,SW,215,2.0,6.0,74,0.00,,---,0.00,195.00,VWS V14.01,2013-07-25 20:23:00,
2013-07-25 15:28:00,76.4,67.1,29.93,SW,214,1.0,6.0,73,0.00,,---,0.00,155.00,VWS V14.01,2013-07-25 20:28:00,
2013-07-25 15:33:00,76.2,66.5,29.93,SW,215,2.0,6.0,72,0.00,,---,0.00,118.00,VWS V14.01,2013-07-25 20:33:00,
2013-07-25 15:38:00,76.0,66.7,29.93,SW,215,2.0,6.0,73,0.00,,---,0.00,91.00,VWS V14.01,2013-07-25 20:38:00,
2013-07-25 15:43:00,75.9,67.0,29.93,SW,215,2.0,6.0,74,0.00,,---,0.00,76.00,VWS V14.01,2013-07-25 20:43:00,
2013-07-25 15:48:00,75.7,66.8,29.93,SW,215,1.0,6.0,74,0.00,,---,0.00,67.00,VWS V14.01,2013-07-25 20:48:00,
2013-07-25 15:53:00,75.6,66.7,29.93,SSW,198,1.0,6.0,74,0.00,,---,0.00,63.00,VWS V14.01,2013-07-25 20:53:00,
2013-07-25 15:58:00,75.4,66.9,29.93,SSW,198,0.0,6.0,75,0.00,,---,0.00,58.00,VWS V14.01,2013-07-25 20:58:00,
2013-07-25 16:00:00,75.4,66.5,29.93,SSW,198,0.0,6.0,74,0.00,,---,0.00,58.00,VWS V14.01,2013-07-25 21:00:00,
2013-07-25 16:03:00,75.3,66.8,29.92,SSW,198,0.0,1.0,75,0.00,,---,0.00,58.00,VWS V14.01,2013-07-25 21:03:00,
2013-07-25 16:08:00,75.2,67.1,29.92,SSW,198,0.0,1.0,76,0.00,,---,0.00,54.00,VWS V14.01,2013-07-25 21:08:00,
2013-07-25 16:13:00,75.1,67.0,29.92,SSW,198,0.0,1.0,76,0.00,,---,0.00,51.00,VWS V14.01,2013-07-25 21:13:00,
2013-07-25 16:18:00,75.1,66.6,29.93,SSW,198,0.0,2.0,75,0.00,,---,0.00,53.00,VWS V14.01,2013-07-25 21:18:00,
2013-07-25 16:23:00,74.9,66.8,29.93,SSW,198,2.0,2.0,76,0.00,,---,0.00,56.00,VWS V14.01,2013-07-25 21:23:00,
2013-07-25 16:28:00,74.8,66.7,29.93,SSW,198,0.0,2.0,76,0.00,,---,0.00,58.00,VWS V14.01,2013-07-25 21:28:00,
2013-07-25 16:33:00,74.7,67.0,29.93,SSW,198,0.0,2.0,77,0.00,,---,0.00,53.00,VWS V14.01,2013-07-25 21:33:00,
2013-07-25 16:38:00,74.7,67.0,29.93,SSW,198,1.0,3.0,77,0.00,,---,0.00,51.00,VWS V14.01,2013-07-25 21:38:00,
2013-07-25 16:43:00,74.5,67.2,29.94,SSW,198,1.0,3.0,78,0.00,,---,0.00,51.00,VWS V14.01,2013-07-25 21:43:00,
2013-07-25 16:48:00,74.3,67.0,29.93,SSW,198,1.0,3.0,78,0.00,,---,0.00,40.00,VWS V14.01,2013-07-25 21:48:00,
2013-07-25 16:53:00,74.1,67.5,29.93,SSW,198,0.0,3.0,80,0.00,,---,0.00,33.00,VWS V14.01,2013-07-25 21:53:00,
2013-07-25 16:58:00,74.0,67.8,29.93,SSW,198,0.0,3.0,81,0.00,,---,0.00,26.00,VWS V14.01,2013-07-25 21:58:00,
2013-07-25 17:00:00,73.9,67.3,29.93,SSW,198,0.0,3.0,80,0.00,,---,0.00,26.00,VWS V14.01,2013-07-25 22:00:00,
2013-07-25 17:03:00,73.7,67.5,29.93,SSW,198,0.0,1.0,81,0.00,,---,0.00,25.00,VWS V14.01,2013-07-25 22:03:00,
2013-07-25 17:08:00,73.5,67.3,29.94,SSW,198,0.0,2.0,81,0.00,,---,0.00,21.00,VWS V14.01,2013-07-25 22:08:00,
2013-07-25 17:13:00,73.2,67.4,29.94,SSW,198,2.0,2.0,82,0.00,,---,0.00,16.00,VWS V14.01,2013-07-25 22:13:00,
2013-07-25 17:18:00,72.8,67.0,29.94,SSW,198,1.0,2.0,82,0.00,,---,0.00,12.00,VWS V14.01,2013-07-25 22:18:00,
2013-07-25 17:23:00,72.4,67.3,29.94,SSW,198,2.0,3.0,84,0.01,,---,0.01,12.00,VWS V14.01,2013-07-25 22:23:00,
2013-07-25 17:28:00,72.0,66.9,29.94,SSW,198,2.0,3.0,84,0.01,,---,0.01,14.00,VWS V14.01,2013-07-25 22:28:00,
2013-07-25 17:33:00,71.5,67.1,29.95,SSW,204,1.0,3.0,86,0.02,,---,0.02,16.00,VWS V14.01,2013-07-25 22:33:00,
2013-07-25 17:38:00,71.3,67.2,29.95,SSW,204,0.0,3.0,87,0.03,,---,0.03,18.00,VWS V14.01,2013-07-25 22:38:00,
2013-07-25 17:43:00,71.2,67.5,29.95,SSW,204,0.0,3.0,88,0.04,,---,0.04,18.00,VWS V14.01,2013-07-25 22:43:00,
2013-07-25 17:48:00,71.0,67.3,29.95,SSW,204,0.0,3.0,88,0.04,,---,0.04,21.00,VWS V14.01,2013-07-25 22:48:00,
2013-07-25 17:53:00,70.8,67.4,29.95,SSW,204,0.0,3.0,89,0.05,,---,0.05,25.00,VWS V14.01,2013-07-25 22:53:00,
2013-07-25 17:58:00,70.6,67.2,29.95,SSW,204,0.0,3.0,89,0.05,,---,0.05,26.00,VWS V14.01,2013-07-25 22:58:00,
2013-07-25 18:00:00,70.6,67.2,29.95,SSW,204,0.0,3.0,89,0.05,,---,0.05,25.00,VWS V14.01,2013-07-25 23:00:00,
2013-07-25 18:03:00,70.5,67.1,29.95,SSW,204,0.0,0.0,89,0.05,,---,0.05,25.00,VWS V14.01,2013-07-25 23:03:00,
2013-07-25 18:08:00,70.4,67.3,29.95,SSW,204,0.0,0.0,90,0.06,,---,0.06,28.00,VWS V14.01,2013-07-25 23:08:00,
2013-07-25 18:13:00,70.3,67.2,29.95,SSW,204,0.0,1.0,90,0.06,,---,0.06,28.00,VWS V14.01,2013-07-25 23:13:00,
2013-07-25 18:18:00,70.0,67.3,29.95,SW,232,1.0,4.0,91,0.06,,---,0.06,33.00,VWS V14.01,2013-07-25 23:18:00,
2013-07-25 18:23:00,69.8,67.1,29.95,WSW,238,1.0,4.0,91,0.07,,---,0.07,44.00,VWS V14.01,2013-07-25 23:23:00,
2013-07-25 18:28:00,69.4,66.7,29.95,SW,222,3.0,10.0,91,0.07,,---,0.07,40.00,VWS V14.01,2013-07-25 23:28:00,
2013-07-25 18:33:00,68.9,65.8,29.95,SW,232,4.0,10.0,90,0.07,,---,0.07,32.00,VWS V14.01,2013-07-25 23:33:00,
2013-07-25 18:38:00,68.3,65.3,29.94,SSW,199,4.0,10.0,90,0.07,,---,0.07,32.00,VWS V14.01,2013-07-25 23:38:00,
2013-07-25 18:43:00,67.7,64.3,29.93,SSW,200,5.0,10.0,89,0.07,,---,0.07,30.00,VWS V14.01,2013-07-25 23:43:00,
2013-07-25 18:48:00,67.5,64.2,29.91,SSW,207,5.0,10.0,89,0.07,,---,0.07,19.00,VWS V14.01,2013-07-25 23:48:00,
2013-07-25 18:53:00,67.2,63.5,29.88,SSW,200,5.0,10.0,88,0.08,,---,0.08,16.00,VWS V14.01,2013-07-25 23:53:00,
2013-07-25 18:58:00,67.1,63.4,29.89,SW,214,5.0,10.0,88,0.08,,---,0.08,18.00,VWS V14.01,2013-07-25 23:58:00,
2013-07-25 19:00:00,67.1,63.4,29.90,SW,221,4.0,10.0,88,0.08,,---,0.08,18.00,VWS V14.01,2013-07-26 00:00:00,
2013-07-25 19:03:00,66.9,63.2,29.90,SSW,205,2.0,5.0,88,0.03,,---,0.08,14.00,VWS V14.01,2013-07-26 00:03:00,
2013-07-25 19:08:00,66.7,62.7,29.91,SW,230,2.0,5.0,87,0.03,,---,0.08,12.00,VWS V14.01,2013-07-26 00:08:00,
2013-07-25 19:13:00,66.6,62.6,29.91,SSW,202,1.0,5.0,87,0.03,,---,0.08,11.00,VWS V14.01,2013-07-26 00:13:00,
2013-07-25 19:18:00,66.5,62.8,29.92,SSW,202,3.0,5.0,88,0.03,,---,0.08,9.00,VWS V14.01,2013-07-26 00:18:00,
2013-07-25 19:23:00,66.5,62.8,29.92,SW,222,0.0,5.0,88,0.03,,---,0.08,9.00,VWS V14.01,2013-07-26 00:23:00,
2013-07-25 19:28:00,66.5,62.8,29.93,SW,222,0.0,5.0,88,0.03,,---,0.08,7.00,VWS V14.01,2013-07-26 00:28:00,
2013-07-25 19:33:00,66.5,62.8,29.94,SW,219,2.0,5.0,88,0.03,,---,0.08,7.00,VWS V14.01,2013-07-26 00:33:00,
2013-07-25 19:38:00,66.4,62.7,29.94,SW,232,3.0,5.0,88,0.03,,---,0.08,5.00,VWS V14.01,2013-07-26 00:38:00,
2013-07-25 19:43:00,66.3,62.6,29.94,SSW,207,2.0,5.0,88,0.03,,---,0.08,5.00,VWS V14.01,2013-07-26 00:43:00,
2013-07-25 19:48:00,66.2,62.5,29.94,SSW,202,4.0,5.0,88,0.03,,---,0.08,7.00,VWS V14.01,2013-07-26 00:48:00,
2013-07-25 19:53:00,66.2,62.5,29.94,SSW,204,4.0,5.0,88,0.03,,---,0.08,7.00,VWS V14.01,2013-07-26 00:53:00,
2013-07-25 19:58:00,66.1,62.8,29.94,SW,219,3.0,5.0,89,0.03,,---,0.08,5.00,VWS V14.01,2013-07-26 00:58:00,
2013-07-25 20:00:00,66.1,62.8,29.94,SW,216,3.0,5.0,89,0.03,,---,0.08,5.00,VWS V14.01,2013-07-26 01:00:00,
2013-07-25 20:03:00,66.1,62.8,29.93,SSW,200,1.0,4.0,89,0.00,,---,0.08,0.00,VWS V14.01,2013-07-26 01:03:00,
2013-07-25 20:08:00,66.1,62.8,29.93,SSW,205,0.0,4.0,89,0.00,,---,0.08,0.00,VWS V14.01,2013-07-26 01:08:00,
2013-07-25 20:13:00,66.1,62.8,29.93,SW,231,1.0,4.0,89,0.00,,---,0.08,0.00,VWS V14.01,2013-07-26 01:13:00,
2013-07-25 20:17:00,66.0,62.7,29.93,SW,231,0.0,4.0,89,0.00,,---,0.08,0.00,VWS V14.01,2013-07-26 01:17:00,
2013-07-25 20:23:00,66.0,62.7,29.93,SW,231,1.0,4.0,89,0.00,,---,0.08,0.00,VWS V14.01,2013-07-26 01:23:00,
2013-07-25 20:28:00,65.7,62.0,29.93,SW,231,1.0,4.0,88,0.00,,---,0.08,0.00,VWS V14.01,2013-07-26 01:28:00,
2013-07-25 20:32:00,65.6,62.0,29.92,SW,231,2.0,4.0,88,0.00,,---,0.08,0.00,VWS V14.01,2013-07-26 01:32:00,
2013-07-25 20:37:00,65.5,61.9,29.92,SW,219,2.0,4.0,88,0.00,,---,0.08,0.00,VWS V14.01,2013-07-26 01:37:00,
2013-07-25 20:42:00,65.4,62.1,29.92,South,190,3.0,4.0,89,0.00,,---,0.08,0.00,VWS V14.01,2013-07-26 01:42:00,
2013-07-25 20:47:00,65.4,62.1,29.92,SSW,204,3.0,4.0,89,0.00,,---,0.08,0.00,VWS V14.01,2013-07-26 01:47:00,
2013-07-25 20:52:00,65.3,62.0,29.92,SSW,211,2.0,4.0,89,0.00,,---,0.08,0.00,VWS V14.01,2013-07-26 01:52:00,
2013-07-25 20:57:00,65.2,61.9,29.92,SSW,202,1.0,5.0,89,0.00,,---,0.08,0.00,VWS V14.01,2013-07-26 01:57:00,
2013-07-25 21:00:00,65.2,61.9,29.92,SSW,202,3.0,5.0,89,0.00,,---,0.08,0.00,VWS V14.01,2013-07-26 02:00:00,
2013-07-25 21:02:00,65.2,62.2,29.92,SSW,199,2.0,4.0,90,0.00,,---,0.08,0.00,VWS V14.01,2013-07-26 02:02:00,
2013-07-25 21:07:00,65.1,62.1,29.92,SSW,200,5.0,5.0,90,0.00,,---,0.08,0.00,VWS V14.01,2013-07-26 02:07:00,
2013-07-25 21:12:00,65.1,62.1,29.92,SSW,212,1.0,5.0,90,0.00,,---,0.08,0.00,VWS V14.01,2013-07-26 02:12:00,
2013-07-25 21:17:00,65.1,62.1,29.92,SSW,198,3.0,6.0,90,0.00,,---,0.08,0.00,VWS V14.01,2013-07-26 02:17:00,
2013-07-25 21:22:00,65.0,62.0,29.93,SW,214,5.0,6.0,90,0.00,,---,0.08,0.00,VWS V14.01,2013-07-26 02:22:00,
2013-07-25 21:27:00,64.9,61.9,29.93,SW,223,3.0,6.0,90,0.00,,---,0.08,0.00,VWS V14.01,2013-07-26 02:27:00,
2013-07-25 21:32:00,64.8,61.8,29.92,SSW,203,4.0,6.0,90,0.00,,---,0.08,0.00,VWS V14.01,2013-07-26 02:32:00,
2013-07-25 21:37:00,64.7,61.7,29.93,SSW,202,4.0,7.0,90,0.00,,---,0.08,0.00,VWS V14.01,2013-07-26 02:37:00,
2013-07-25 21:42:00,64.6,61.6,29.93,SSW,209,5.0,7.0,90,0.00,,---,0.08,0.00,VWS V14.01,2013-07-26 02:42:00,
2013-07-25 21:47:00,64.5,61.2,29.93,SSW,196,5.0,7.0,89,0.00,,---,0.08,0.00,VWS V14.01,2013-07-26 02:47:00,
2013-07-25 21:52:00,64.3,61.3,29.93,SW,224,2.0,7.0,90,0.00,,---,0.08,0.00,VWS V14.01,2013-07-26 02:52:00,
2013-07-25 21:57:00,64.2,60.9,29.93,SSW,203,4.0,7.0,89,0.00,,---,0.08,0.00,VWS V14.01,2013-07-26 02:57:00,
2013-07-25 22:00:00,64.2,60.9,29.93,SSW,199,4.0,7.0,89,0.00,,---,0.08,0.00,VWS V14.01,2013-07-26 03:00:00,
2013-07-25 22:02:00,64.2,60.9,29.93,SSW,202,3.0,6.0,89,0.00,,---,0.08,0.00,VWS V14.01,2013-07-26 03:02:00,
2013-07-25 22:08:00,64.2,60.9,29.93,SSW,211,2.0,6.0,89,0.00,,---,0.08,0.00,VWS V14.01,2013-07-26 03:08:00,
2013-07-25 22:13:00,64.1,60.8,29.93,SW,219,3.0,6.0,89,0.00,,---,0.08,0.00,VWS V14.01,2013-07-26 03:13:00,
2013-07-25 22:18:00,64.1,60.8,29.93,SW,215,2.0,6.0,89,0.00,,---,0.08,0.00,VWS V14.01,2013-07-26 03:18:00,
2013-07-25 22:23:00,64.1,60.8,29.93,SSW,202,4.0,6.0,89,0.00,,---,0.08,0.00,VWS V14.01,2013-07-26 03:23:00,
2013-07-25 22:28:00,64.0,60.7,29.93,SSW,202,1.0,6.0,89,0.00,,---,0.08,0.00,VWS V14.01,2013-07-26 03:28:00,
2013-07-25 22:33:00,64.0,60.7,29.93,SSW,207,3.0,6.0,89,0.00,,---,0.08,0.00,VWS V14.01,2013-07-26 03:33:00,
2013-07-25 22:38:00,64.0,60.7,29.93,SSW,202,0.0,6.0,89,0.00,,---,0.08,0.00,VWS V14.01,2013-07-26 03:38:00,
2013-07-25 22:43:00,64.0,60.4,29.93,SSW,204,3.0,6.0,88,0.00,,---,0.08,0.00,VWS V14.01,2013-07-26 03:43:00,
2013-07-25 22:48:00,64.1,60.5,29.92,SSW,209,2.0,6.0,88,0.00,,---,0.08,0.00,VWS V14.01,2013-07-26 03:48:00,
2013-07-25 22:53:00,64.1,60.5,29.92,SSW,209,3.0,6.0,88,0.00,,---,0.08,0.00,VWS V14.01,2013-07-26 03:53:00,
2013-07-25 22:58:00,64.1,60.5,29.92,SSW,209,0.0,6.0,88,0.00,,---,0.08,0.00,VWS V14.01,2013-07-26 03:58:00,
2013-07-25 23:00:00,64.2,60.6,29.92,SSW,209,2.0,6.0,88,0.00,,---,0.08,0.00,VWS V14.01,2013-07-26 04:00:00,
2013-07-25 23:01:00,64.2,60.6,29.92,SSW,209,3.0,4.0,88,0.00,,---,0.08,0.00,VWS V14.01,2013-07-26 04:01:00,
2013-07-25 23:02:00,64.2,60.3,29.92,SSW,209,2.0,4.0,87,0.00,,---,0.08,0.00,VWS V14.01,2013-07-26 04:02:00,
2013-07-25 23:07:00,64.3,60.3,29.92,SSW,209,3.0,4.0,87,0.00,,---,0.08,0.00,VWS V14.01,2013-07-26 04:07:00,
2013-07-25 23:12:00,64.3,60.3,29.92,SSW,209,0.0,4.0,87,0.00,,---,0.08,0.00,VWS V14.01,2013-07-26 04:12:00,
2013-07-25 23:17:00,64.3,60.3,29.92,SSW,209,2.0,4.0,87,0.00,,---,0.08,0.00,VWS V14.01,2013-07-26 04:17:00,
2013-07-25 23:22:00,64.2,60.3,29.92,SSW,209,1.0,4.0,87,0.00,,---,0.08,0.00,VWS V14.01,2013-07-26 04:22:00,
2013-07-25 23:27:00,64.1,60.5,29.92,SSW,209,1.0,4.0,88,0.00,,---,0.08,0.00,VWS V14.01,2013-07-26 04:27:00,
2013-07-25 23:32:00,64.1,60.5,29.92,SSW,209,0.0,4.0,88,0.00,,---,0.08,0.00,VWS V14.01,2013-07-26 04:32:00,
2013-07-25 23:37:00,64.1,60.5,29.92,SSW,209,0.0,4.0,88,0.00,,---,0.08,0.00,VWS V14.01,2013-07-26 04:37:00,
2013-07-25 23:42:00,64.0,60.4,29.92,SSW,209,0.0,4.0,88,0.00,,---,0.08,0.00,VWS V14.01,2013-07-26 04:42:00,
2013-07-25 23:47:00,63.9,60.3,29.91,SSW,209,1.0,4.0,88,0.00,,---,0.08,0.00,VWS V14.01,2013-07-26 04:47:00,
2013-07-25 23:52:00,63.7,60.4,29.91,SSW,209,1.0,4.0,89,0.00,,---,0.08,0.00,VWS V14.01,2013-07-26 04:52:00,
2013-07-25 23:57:00,63.6,60.3,29.91,SSW,209,0.0,4.0,89,0.00,,---,0.08,0.00,VWS V14.01,2013-07-26 04:57:00,